Wind_Speed
4 4 4 1 3 4 3 2 3 5 5 5 6 5 4 6 6 5 7 7 6 7 6 5 6 4 4 4 3 2 2 3 3 3 5 6 5 5 5 5 5 5 5 5 7 9 8 6 9 13 17 21 24 25 25 27 30 31 32 33 33 31 29 28 28 30 31 31 31 31 30 29 30 31 31 30 29 28 28 28 27 26 27 28 28 28 28
4 3 4 3 3 3 1 3 1 6 7 5 4 3 3 4 2 3 5 8 7 7 5 5 4 3 3 2 1 2 3 3 4 4 5 5 5 6 5 6 6 5 5 5 6 8 8 6 9 12 15 20 24 25 24 25 28 32 34 33 32 31 30 30 30 29 28 27 28 29 30 30 31 32 31 30 28 26 24 21 19 19 21 24 27 27 26
4 4 0 2 3 4 3 4 3 8 8 4 4 3 3 3 1 2 3 2 6 5 2 2 0 1 1 2 2 3 3 2 3 4 5 5 5 6 6 6 6 5 5 5 6 7 8 9 9 10 14 19 24 26 26 27 30 32 34 33 32 29 27 26 27 29 28 25 24 25 27 27 28 29 29 29 28 26 22 18 14 13 15 18 20 22 22
3 4 2 3 5 7 5 3 3 7 7 4 2 2 3 4 3 3 4 0 6 5 2 3 2 2 2 1 2 3 3 3 4 4 5 6 6 6 6 6 6 6 5 6 6 7 9 10 9 11 14 18 22 24 25 28 31 33 34 32 27 23 21 19 20 23 25 27 26 24 22 22 23 24 25 27 29 28 26 22 18 15 16 17 18 19 20
4 4 3 3 5 7 3 2 5 5 4 4 3 2 3 5 6 5 3 5 6 3 4 4 2 2 2 2 2 2 3 3 4 4 4 5 7 5 5 6 6 6 6 7 8 10 9 9 10 13 16 20 23 23 22 24 27 29 29 25 22 21 21 22 22 20 20 24 25 22 18 17 17 17 19 21 22 21 21 21 19 16 16 17 17 18 19
4 6 4 4 4 2 3 6 5 5 5 8 7 3 2 3 3 3 3 3 3 3 5 6 5 4 3 2 2 1 2 2 3 3 4 5 6 5 5 6 6 7 7 8 9 11 11 10 12 13 13 19 23 23 22 20 20 23 23 20 19 21 22 26 27 23 19 19 18 16 15 15 13 13 14 15 14 14 14 15 15 15 15 16 16 17 18
2 3 5 5 1 5 5 4 1 3 5 9 9 3 1 2 2 1 2 2 2 3 3 4 4 4 2 1 2 2 1 1 1 2 3 4 5 5 5 5 5 7 8 9 10 11 11 10 12 13 6 10 17 18 20 19 18 21 21 18 17 20 21 23 25 23 20 17 16 14 15 17 17 16 13 11 11 13 13 14 13 12 13 15 16 17 18
2 2 4 2 5 5 3 5 4 6 4 5 6 3 4 4 4 4 4 3 2 3 2 2 3 2 1 2 3 3 2 0 1 1 3 4 4 5 5 6 6 8 10 11 12 11 11 10 12 15 10 5 12 15 17 17 16 18 19 15 14 16 17 17 19 18 15 15 16 13 11 13 16 15 11 10 11 12 12 13 13 12 12 14 14 15 16
3 3 2 2 2 2 2 2 1 4 3 4 4 1 5 6 4 5 5 3 3 3 3 3 2 2 3 4 4 4 3 0 1 1 3 4 5 5 7 8 8 10 11 12 13 12 12 13 14 15 13 8 10 13 13 12 12 15 17 14 12 12 11 12 13 14 14 15 15 12 11 11 11 11 9 10 12 11 11 12 12 12 13 13 12 12 14
2 5 1 1 1 2 4 6 6 3 4 7 6 3 3 6 5 6 5 5 5 4 5 4 2 2 2 3 4 3 2 1 1 2 4 6 7 7 9 10 11 12 12 12 13 14 15 15 14 14 14 14 15 16 14 13 16 18 17 15 13 11 9 9 10 12 14 15 16 16 16 16 14 11 10 10 10 10 11 11 11 12 12 10 10 11 11
2 5 3 2 3 4 6 7 7 6 3 6 5 5 4 6 6 7 5 6 6 5 6 5 4 3 1 3 5 3 2 2 1 3 4 7 9 9 10 11 11 12 12 12 13 15 15 14 12 13 14 17 18 18 17 17 18 17 15 15 16 15 13 12 13 13 13 12 12 13 13 12 11 10 8 7 7 7 8 9 8 9 8 6 7 7 7
3 4 3 2 3 3 4 6 6 4 2 5 6 2 6 6 5 7 6 6 7 6 5 4 4 4 4 3 4 3 3 2 2 3 4 6 8 9 11 12 11 12 13 13 14 16 15 12 11 12 15 18 19 18 17 18 18 17 16 17 18 17 16 16 15 14 13 11 10 10 9 8 8 7 5 4 3 3 5 5 6 6 5 5 6 6 5
3 4 3 2 3 3 5 6 5 2 2 4 2 4 6 4 5 6 6 6 7 7 7 5 4 5 4 4 3 1 3 3 2 4 4 4 4 7 10 11 11 12 13 14 15 15 13 11 11 12 16 20 20 19 20 20 19 19 19 21 21 20 19 19 17 16 15 13 12 11 10 9 10 9 8 6 5 5 5 5 6 6 7 7 8 8 6
3 3 3 0 3 4 6 5 2 2 3 2 5 6 4 4 6 6 5 6 7 7 7 6 5 4 3 3 2 2 4 3 2 4 5 4 4 7 9 10 10 11 12 13 15 15 13 12 12 14 18 21 20 20 22 20 18 19 21 23 23 22 22 21 21 20 20 19 17 16 14 13 14 14 13 11 10 10 10 9 10 11 11 10 10 11 10
3 2 3 2 2 5 5 5 2 1 3 5 5 3 1 3 6 6 5 5 6 7 6 5 4 2 0 3 3 3 3 3 4 5 6 6 5 7 9 8 8 9 10 11 14 14 13 14 14 16 20 21 19 20 20 18 18 21 22 23 23 23 24 24 24 23 23 22 21 20 18 17 17 17 16 16 15 14 14 14 15 16 15 13 13 13 13
3 3 2 3 4 6 6 6 4 4 5 5 6 6 3 2 4 5 5 4 5 7 7 6 4 2 2 4 4 3 4 4 4 6 7 8 6 6 9 11 10 9 9 11 12 13 14 15 15 17 19 19 19 19 18 17 18 21 22 23 24 25 25 26 26 25 25 24 23 23 21 20 20 20 19 19 19 18 17 18 18 18 17 17 17 17 16
3 4 5 5 3 3 4 4 4 5 4 4 6 7 5 3 4 4 5 5 5 6 7 6 4 3 3 4 4 4 3 3 4 7 7 7 5 6 9 12 12 10 9 11 12 12 13 14 15 16 17 18 19 18 16 16 17 19 21 23 25 25 25 25 25 26 25 24 24 24 23 23 23 23 22 22 22 21 20 20 20 20 19 19 19 18 17
2 2 2 1 0 1 2 1 2 2 4 4 5 7 5 4 5 4 5 6 6 7 8 7 5 4 5 5 4 4 4 3 5 8 8 6 5 7 8 9 9 8 8 10 11 12 13 13 15 15 16 18 19 17 16 16 16 17 19 22 24 24 23 24 24 24 24 23 23 23 23 23 23 22 21 21 21 20 19 19 18 17 17 17 17 17 16
2 1 3 2 0 1 2 2 2 2 3 3 3 5 5 4 5 5 5 6 7 7 7 8 7 5 6 7 5 3 4 4 5 8 8 5 6 7 7 6 7 10 11 11 11 12 13 14 16 17 18 19 20 19 18 17 17 19 20 22 23 23 22 22 22 22 22 22 21 21 21 20 20 19 18 18 18 17 16 15 14 13 13 14 15 15 15
3 3 5 2 0 1 1 1 1 2 4 4 4 4 4 5 5 4 5 7 8 7 7 8 9 6 5 7 6 4 4 4 5 9 10 8 7 7 6 6 9 13 15 14 12 12 12 13 16 18 19 20 20 20 20 20 21 22 22 23 23 22 22 22 21 21 21 21 20 20 20 19 19 18 16 16 16 16 15 15 14 14 14 15 15 16 16
2 1 2 1 3 4 5 4 2 2 4 5 5 5 5 6 6 6 5 5 7 8 8 8 9 8 6 6 7 7 6 5 6 10 14 14 11 8 7 8 10 13 16 16 15 13 12 12 14 16 17 17 18 19 21 22 23 24 24 23 23 23 23 23 23 23 22 22 22 22 22 21 21 19 18 17 17 17 16 15 15 15 16 17 18 18 18
1 4 5 5 3 1 5 6 3 3 5 7 7 6 6 7 7 7 7 6 6 9 10 10 10 9 6 6 8 8 7 8 10 14 18 18 15 11 10 12 12 12 15 18 17 16 14 13 13 13 13 13 14 16 18 20 23 24 24 24 24 23 23 23 23 22 23 22 22 23 22 22 22 21 20 19 18 18 17 16 16 17 19 20 20 20 20
5 7 8 7 5 2 5 5 4 5 5 7 8 7 6 7 7 8 9 9 8 7 7 9 12 10 6 8 11 8 8 12 16 17 19 19 16 14 16 19 16 13 14 18 18 17 16 16 16 15 14 13 13 13 14 17 19 21 22 23 22 21 21 22 21 21 21 21 21 21 21 21 21 21 20 19 19 19 19 18 19 20 21 22 21 21 20
4 5 8 7 4 2 4 5 7 6 6 7 8 7 7 7 7 8 9 9 10 9 6 6 11 13 11 11 12 10 9 13 17 18 19 20 18 17 19 23 21 15 14 17 18 17 16 17 17 16 16 15 14 13 14 15 17 18 19 20 19 18 17 17 17 17 18 18 18 18 18 18 19 20 20 19 18 18 18 19 20 20 21 21 20 20 19
3 4 7 7 4 2 2 4 6 5 5 7 7 6 7 8 9 9 9 7 9 12 9 6 9 15 16 14 12 12 12 13 16 18 19 19 18 18 19 22 23 20 17 17 18 17 16 16 16 16 16 15 15 15 15 14 15 15 16 16 15 14 13 12 12 12 12 12 13 14 15 15 16 17 18 19 18 17 17 18 19 19 19 18 18 18 18
2 5 7 5 4 4 5 5 4 4 6 7 7 6 9 11 11 11 12 12 13 14 14 11 11 15 18 18 15 14 15 14 15 18 19 18 17 19 19 20 22 22 21 19 19 18 16 16 16 16 15 14 14 14 13 13 14 14 13 13 12 11 10 9 9 8 8 7 8 8 9 10 11 12 15 17 17 17 17 17 17 16 16 16 16 17 17
4 9 9 7 4 3 5 5 5 7 8 8 7 7 10 14 14 12 13 14 15 16 17 18 16 15 16 17 17 15 15 15 15 17 18 17 17 19 20 21 21 21 21 20 20 19 17 16 16 16 15 14 14 14 13 13 13 13 12 12 11 11 10 10 10 9 8 7 7 6 5 5 5 7 10 12 14 14 15 16 16 15 14 14 14 15 16
6 9 7 5 7 9 7 5 6 8 8 9 10 11 12 13 13 11 10 10 12 13 15 18 19 17 14 14 15 14 13 13 14 14 15 16 19 21 21 22 21 20 19 20 19 18 17 16 16 16 14 13 14 15 13 12 12 12 11 10 10 11 11 11 11 11 10 9 8 8 7 6 5 5 6 7 9 10 11 13 14 14 13 13 13 14 14
6 4 1 1 6 9 7 6 7 8 8 9 11 13 13 11 10 8 7 8 10 11 11 14 17 18 16 15 15 15 13 12 13 13 12 13 20 25 24 24 23 20 17 18 19 17 16 16 16 15 13 12 14 16 14 13 13 12 10 9 8 8 9 9 9 10 10 11 11 11 10 9 8 6 5 5 6 7 9 9 11 11 11 12 13 13 13
3 1 3 3 7 10 10 9 8 8 8 9 10 10 10 10 9 8 8 8 9 9 10 12 14 15 16 16 15 16 16 17 18 18 14 12 19 26 25 24 23 18 13 15 18 17 16 16 16 15 12 11 13 14 13 13 13 12 11 9 8 6 6 6 7 9 11 12 14 14 14 13 10 8 6 5 6 7 7 8 8 9 9 10 11 12 12
3 4 4 6 8 10 10 9 8 8 7 8 10 9 9 10 10 9 8 8 7 8 11 14 13 13 15 17 16 16 19 20 21 22 18 16 20 25 22 20 21 18 13 12 13 13 12 13 13 11 9 9 10 11 11 12 12 11 10 10 9 8 8 8 9 11 12 13 14 15 15 15 13 12 10 8 6 7 7 6 6 7 8 9 9 9 10
7 6 5 5 6 8 8 7 7 8 7 8 10 11 10 10 11 10 9 8 10 11 13 13 13 14 17 18 17 18 20 21 21 20 18 18 20 22 19 18 18 18 15 12 10 9 10 11 10 8 6 5 5 7 8 10 10 10 9 9 10 12 12 12 13 13 13 14 14 13 13 13 13 12 12 11 9 8 6 5 5 6 8 8 7 7 8
8 6 5 5 5 6 7 7 8 9 9 9 9 9 8 9 10 10 10 11 13 14 13 13 15 18 19 19 19 20 20 19 18 16 16 16 17 18 17 17 18 18 16 14 12 11 11 10 9 7 4 2 2 3 4 6 8 9 9 9 10 12 13 13 13 13 13 13 13 12 12 11 11 11 12 11 10 9 7 5 4 5 6 7 7 6 6
10 9 10 12 11 11 11 10 9 8 8 7 7 7 8 10 12 13 14 15 13 13 15 16 18 20 21 21 20 20 19 16 12 12 14 17 17 17 18 19 20 19 17 14 12 11 9 8 7 5 3 3 1 2 4 4 5 7 8 8 9 11 13 13 12 12 12 12 12 12 13 13 13 13 13 13 11 10 9 8 7 6 6 6 6 5 6
10 9 10 12 12 13 13 12 11 10 9 8 7 7 9 13 15 15 16 17 17 17 19 20 20 21 22 20 19 19 18 15 14 15 18 19 19 20 21 22 21 19 17 14 11 9 8 6 5 3 3 4 3 3 4 4 5 6 7 8 10 12 13 13 12 11 12 12 13 14 14 15 16 15 15 14 14 13 13 12 12 11 10 9 8 7 6
9 6 6 7 8 9 10 11 12 12 11 9 9 9 11 14 17 18 19 20 20 20 21 21 21 20 20 20 19 18 18 18 19 20 21 21 21 22 22 22 21 20 18 14 11 8 6 5 4 2 3 3 4 5 4 4 5 7 8 10 13 14 14 14 14 13 13 13 14 15 16 16 16 16 15 15 15 14 14 14 14 13 13 12 10 8 7
9 8 6 6 9 10 11 13 16 16 14 12 13 13 14 17 19 21 21 21 21 22 23 23 22 20 19 20 20 20 19 21 22 22 22 23 23 22 21 21 21 19 17 15 12 9 7 6 4 2 1 2 4 5 4 4 5 7 8 11 13 13 13 14 15 15 15 16 16 17 17 17 17 17 16 15 15 14 14 14 14 13 13 12 10 9 7
11 12 10 10 12 14 14 17 20 20 17 15 15 17 20 21 21 22 22 22 22 24 25 24 23 22 21 20 20 20 20 22 23 23 23 23 23 21 21 20 20 18 17 15 13 11 9 8 6 3 1 1 2 3 4 5 5 6 8 11 13 13 14 15 16 17 17 18 17 17 17 17 17 17 16 15 15 14 13 13 12 12 11 10 9 8 7
7 9 10 11 13 14 14 15 18 20 20 18 16 18 21 23 23 23 22 22 24 25 25 24 23 22 20 19 19 19 22 24 25 25 24 23 22 20 19 19 18 16 15 15 15 13 12 10 7 4 2 1 2 3 4 6 7 9 11 13 14 15 16 17 17 18 18 17 17 17 17 17 17 17 16 15 15 14 12 11 10 9 8 8 7 7 6
7 7 9 9 10 11 12 13 15 20 23 23 21 21 23 25 24 23 21 22 24 26 26 25 23 20 20 20 20 20 23 26 27 26 24 22 20 18 17 17 17 16 15 16 16 15 13 10 8 5 4 2 2 4 6 8 11 13 14 14 15 16 17 17 17 17 17 17 17 17 17 17 16 16 15 14 14 13 12 10 9 8 7 7 6 6 6
5 7 10 11 10 11 13 14 16 18 22 23 24 25 27 27 25 23 22 23 25 26 27 28 26 23 22 22 22 23 25 26 26 25 24 22 19 17 15 16 17 17 16 17 16 14 12 11 8 5 3 3 3 5 6 9 12 14 14 14 15 16 17 17 16 16 16 16 17 17 16 16 15 14 13 12 12 11 11 10 10 9 8 8 7 6 6
2 4 7 8 9 12 14 14 15 17 19 21 24 26 28 29 29 26 25 26 26 26 27 28 28 26 24 23 23 23 24 24 24 24 23 22 21 18 15 16 18 18 18 17 15 12 11 11 8 4 3 5 5 6 7 10 13 14 14 15 15 16 16 17 17 16 16 16 16 15 15 14 14 13 13 12 10 9 9 9 10 10 10 9 9 8 7
5 6 6 6 9 12 14 15 15 15 16 20 24 26 28 29 28 26 26 26 27 26 26 25 24 24 24 24 23 22 21 22 23 23 21 20 20 19 16 16 19 20 19 17 15 12 12 11 9 6 6 7 7 8 11 14 15 15 15 16 16 16 16 16 16 15 15 15 15 14 14 14 15 15 14 13 12 11 10 10 10 11 11 11 10 10 9
5 8 8 8 10 12 13 14 14 14 15 19 23 27 28 28 27 27 27 27 26 26 26 24 23 24 26 26 24 23 22 23 24 23 18 15 15 15 14 15 19 21 20 17 15 13 12 12 10 8 8 9 11 13 16 17 16 16 16 16 15 15 15 15 14 14 14 14 14 14 15 15 15 14 14 13 14 13 13 12 12 11 11 11 11 11 11
5 8 10 9 9 11 12 14 15 15 17 18 18 19 21 22 23 26 28 28 27 26 27 27 26 27 27 27 27 27 28 28 29 26 21 15 13 14 15 17 20 22 20 16 15 14 14 12 10 9 10 11 14 17 18 17 16 15 16 15 14 14 13 13 13 13 14 14 14 14 14 14 13 12 12 13 14 14 13 12 12 12 12 12 12 12 11
8 8 9 10 10 13 15 16 15 16 17 17 14 12 15 19 19 20 24 28 29 28 29 30 30 30 30 29 27 25 25 26 26 27 24 18 14 15 18 20 21 21 19 16 16 16 15 13 11 10 10 13 16 17 17 16 15 15 15 14 13 12 12 12 13 14 14 13 13 13 13 12 12 11 11 12 12 13 12 11 11 11 11 12 13 12 11
10 8 8 11 13 14 15 14 13 16 18 15 11 12 19 26 27 26 26 27 28 29 29 30 30 30 32 31 29 27 26 23 20 19 20 17 12 13 18 21 22 21 19 17 17 17 16 15 12 10 11 15 18 18 17 16 15 15 14 14 13 12 12 12 12 13 13 11 11 11 10 10 10 11 11 11 11 11 11 10 9 9 9 9 10 9 8
12 10 9 12 14 14 14 14 14 14 14 14 16 19 21 24 26 26 25 25 26 27 28 28 29 30 31 32 32 33 33 28 21 17 17 16 13 14 18 21 22 20 18 17 17 17 17 16 13 11 12 16 18 17 16 16 15 15 15 14 12 11 12 12 11 11 12 11 10 9 9 9 9 10 10 10 10 11 10 10 9 8 7 7 7 6 6
11 9 9 11 12 13 14 13 11 10 12 17 20 21 19 16 15 15 18 22 24 25 26 27 28 29 31 32 32 33 34 31 25 22 20 19 16 16 19 22 22 20 18 17 17 18 18 17 14 12 14 17 18 17 16 15 14 14 15 14 11 11 12 11 10 9 9 9 8 9 9 9 10 10 11 11 10 10 10 10 9 8 7 6 6 5 5
8 7 9 11 13 15 16 14 11 13 17 19 19 21 23 22 19 16 18 21 22 22 24 26 27 29 30 31 31 32 33 29 24 22 22 20 17 18 21 23 22 20 18 17 18 19 20 18 15 13 15 18 18 16 15 14 14 14 14 14 12 12 12 11 9 9 9 8 8 9 10 9 9 10 11 12 11 11 11 11 10 10 9 8 7 6 6
9 9 10 12 13 16 17 16 16 18 21 21 21 24 27 27 24 23 25 25 23 21 21 22 22 25 29 29 28 29 30 26 20 19 21 20 19 19 21 22 21 20 18 18 19 20 18 16 14 15 17 18 16 15 14 13 14 14 14 14 14 13 12 10 10 10 10 10 10 10 9 8 9 11 13 13 12 12 11 11 11 11 11 10 8 7 6
10 8 8 10 12 12 12 12 14 17 20 22 24 26 27 25 22 21 24 27 27 25 24 23 21 23 27 29 28 28 27 24 19 18 19 19 19 19 21 21 20 19 18 18 19 18 15 13 14 16 17 16 15 14 13 12 12 13 13 14 14 13 11 9 9 11 11 10 10 9 8 8 9 11 13 13 13 13 12 11 11 10 10 9 9 8 7
Wind_Direction
244 218 235 206 153 206 230 244 209 175 160 156 160 184 193 145 139 224 228 172 185 244 243 225 230 220 227 251 260 294 326 337 338 345 341 331 324 325 332 337 331 326 328 327 325 328 323 280 243 219 205 207 205 204 206 203 201 206 209 205 204 205 206 207 210 212 212 212 214 216 219 223 228 233 234 234 234 235 237 240 243 246 247 249 250 249 249
298 270 248 210 168 170 15 347 188 156 157 164 145 138 157 145 162 223 184 174 213 246 228 218 223 198 210 248 316 355 352 353 352 347 335 328 320 317 321 324 322 316 314 318 318 327 337 310 268 245 221 212 211 209 208 203 200 203 205 205 204 204 206 209 211 211 210 211 212 213 216 220 227 233 235 233 230 230 231 232 238 243 245 245 244 244 245
318 308 208 125 103 114 92 20 60 121 121 102 87 100 128 121 35 1 81 157 253 266 200 174 64 103 97 20 5 345 332 336 353 342 330 329 322 316 317 318 321 323 318 319 319 329 338 326 297 269 246 227 219 215 208 202 201 200 200 203 202 201 205 209 211 211 208 206 208 211 212 216 224 231 234 233 228 224 221 221 231 242 243 241 240 240 241
286 300 34 73 71 77 70 39 94 124 121 124 143 161 165 155 138 79 65 113 261 259 148 104 60 80 82 355 309 319 322 330 341 326 320 327 317 310 316 320 332 344 337 330 330 334 335 324 303 278 261 243 229 221 210 203 202 199 198 199 195 189 192 199 208 215 213 209 209 212 211 210 218 226 231 231 229 226 224 227 235 241 240 240 239 238 238
255 286 354 44 62 55 19 255 174 146 120 126 133 134 178 164 141 138 169 223 236 207 136 136 172 177 185 231 257 309 315 327 338 317 310 322 314 312 326 332 341 345 338 337 332 328 330 321 305 288 264 240 227 221 211 203 201 197 196 194 183 176 180 189 198 210 218 218 214 211 208 203 205 216 223 224 223 223 226 232 236 236 235 238 241 241 241
249 286 348 33 51 57 258 245 210 178 157 147 141 143 199 190 160 159 187 212 201 150 153 179 196 195 195 212 229 289 311 328 337 318 317 326 318 318 333 342 346 334 328 338 336 331 333 331 328 319 276 229 214 208 201 196 191 189 191 187 177 175 180 188 193 198 211 226 228 220 209 199 199 211 217 212 204 203 212 220 226 231 234 237 242 245 247
198 314 29 47 290 239 249 281 256 150 145 137 125 92 292 241 230 182 157 185 174 135 156 181 181 180 174 192 281 275 294 6 10 332 325 330 325 324 330 341 344 332 332 341 344 346 349 344 349 354 332 199 186 183 181 177 172 174 178 175 173 179 184 189 194 195 199 213 225 227 219 215 221 228 228 224 209 201 209 219 225 235 240 240 241 245 249
148 64 72 125 244 254 316 11 71 100 91 104 100 40 296 247 208 193 193 193 117 90 120 142 133 146 110 14 308 271 255 177 82 336 317 327 329 327 338 344 340 341 347 350 351 360 8 9 13 14 16 125 147 150 158 161 160 163 164 157 154 164 173 182 190 190 188 192 203 213 216 217 227 235 240 241 228 213 217 228 230 235 239 240 242 247 249
144 121 144 248 281 310 358 351 166 143 147 173 145 147 268 249 203 190 190 161 116 110 133 126 96 81 38 358 308 269 257 247 67 314 307 334 336 337 353 356 355 2 6 5 8 19 28 30 32 33 33 67 112 122 134 140 134 137 147 152 152 154 161 173 179 173 167 169 170 169 162 168 193 216 222 222 217 211 217 222 221 227 237 239 242 249 250
114 102 97 332 13 256 245 243 252 251 197 187 157 121 280 262 211 183 175 161 156 150 142 131 90 68 46 316 285 273 270 284 40 357 338 351 355 359 8 7 7 13 16 17 22 34 42 42 46 56 61 75 93 98 100 105 106 113 126 141 151 156 163 171 165 151 147 148 143 138 137 141 152 169 181 193 203 210 218 222 220 226 238 242 238 239 240
110 109 126 172 182 231 239 230 260 285 205 161 110 60 316 267 205 171 166 169 168 164 160 148 122 106 141 265 266 258 232 195 92 37 359 353 358 9 21 21 18 18 20 25 33 38 43 50 65 79 85 89 91 90 91 96 100 102 105 114 126 134 138 141 141 136 135 135 129 125 124 125 134 147 160 182 201 211 219 223 222 222 228 229 217 212 212
156 127 128 210 213 230 236 225 248 269 159 101 70 21 277 256 194 163 166 175 172 165 158 145 141 161 186 234 257 241 182 151 97 53 6 347 354 16 32 33 31 31 29 29 35 36 37 51 71 79 84 85 81 81 85 87 91 97 101 104 112 117 118 120 123 123 123 120 112 106 104 105 112 118 126 150 171 189 199 199 198 197 190 170 158 155 168
153 137 139 243 250 236 228 229 240 236 102 77 91 221 238 221 172 166 168 170 170 162 155 157 183 207 208 218 246 219 124 113 72 50 38 21 22 40 47 43 39 40 35 32 38 40 43 57 68 72 79 79 74 74 76 74 76 86 96 101 105 109 112 114 115 113 111 110 104 99 99 101 101 97 95 100 103 108 125 139 142 138 131 126 121 115 122
152 144 127 186 270 241 204 192 179 106 120 186 218 220 215 171 162 171 171 166 167 166 167 176 199 241 249 212 188 127 118 115 85 71 64 58 63 69 68 58 45 39 37 39 44 46 52 67 73 76 80 77 72 72 72 69 72 81 89 95 101 104 104 102 102 104 106 107 107 104 103 102 99 96 94 94 97 101 107 110 109 105 103 105 104 100 102
129 77 73 93 241 232 186 147 112 117 172 206 208 177 148 170 164 163 170 174 170 167 169 182 202 247 306 133 129 105 92 80 76 81 73 60 72 88 84 69 51 43 43 46 50 50 57 70 77 82 83 79 74 72 69 71 80 87 91 94 95 95 94 92 93 97 100 105 108 108 106 104 102 101 99 97 96 97 101 103 101 97 96 96 97 95 96
127 113 166 201 208 210 181 148 163 209 205 192 166 138 133 185 170 162 173 183 179 168 159 163 177 174 117 127 127 98 84 84 86 84 69 56 69 99 94 79 70 65 60 58 58 59 65 73 78 81 83 83 80 77 78 86 92 93 95 96 95 95 95 95 96 98 100 103 105 106 105 105 102 99 97 94 92 92 94 95 95 93 92 94 93 88 84
163 172 209 226 223 201 181 170 197 207 190 161 147 137 138 175 185 175 170 170 168 156 144 141 145 139 128 132 133 123 117 111 102 92 71 50 61 105 109 98 88 76 66 66 67 67 72 79 81 82 86 88 85 84 91 99 99 98 98 98 97 97 95 95 98 100 101 102 102 102 102 101 98 96 94 93 90 89 90 91 91 90 90 91 90 87 83
204 214 218 216 157 141 159 182 226 182 149 142 139 132 139 176 187 172 160 161 156 145 141 136 129 137 139 127 125 137 138 120 97 93 82 61 73 93 92 92 97 90 75 72 74 72 75 83 87 87 89 90 89 91 99 103 100 101 101 98 96 96 95 95 97 99 100 100 100 101 100 99 97 96 96 95 93 91 90 89 89 89 88 88 88 88 89
155 255 319 354 128 199 159 111 47 69 109 117 124 136 152 164 162 155 149 145 139 136 139 135 130 143 143 125 119 132 133 125 110 100 95 92 105 95 60 53 95 105 93 84 82 81 83 90 94 93 92 93 94 97 100 101 101 101 100 98 96 96 96 97 97 98 98 97 98 100 99 99 98 96 94 95 95 95 96 95 94 93 92 92 91 92 92
140 232 280 313 60 283 318 124 142 136 125 101 80 100 126 122 119 124 127 131 133 132 136 134 131 135 136 126 125 129 124 128 129 120 115 111 109 102 72 63 95 104 96 88 86 88 96 104 104 101 98 96 96 98 99 100 102 100 97 95 95 95 96 98 98 98 98 97 98 98 97 97 97 95 93 93 94 95 97 99 99 98 96 96 96 95 94
79 227 258 48 54 1 326 290 243 154 130 115 94 97 111 110 109 106 102 114 131 136 139 138 128 125 129 127 125 122 116 116 124 123 120 114 110 107 90 81 91 96 93 89 84 84 97 114 118 113 107 102 97 98 100 101 100 98 96 95 95 94 95 96 96 97 98 98 98 97 97 96 95 93 91 92 92 92 93 94 96 98 99 99 98 95 91
160 213 196 167 139 211 260 246 215 141 128 122 117 119 123 125 130 125 108 99 111 127 140 142 128 123 131 130 121 115 110 115 122 123 121 120 124 129 117 100 91 87 88 90 85 80 87 104 114 115 115 112 107 102 102 103 102 100 100 98 96 96 96 96 96 98 98 98 98 98 98 97 96 94 92 92 92 93 93 93 95 99 102 101 97 92 88
218 221 199 172 145 182 232 215 162 143 143 133 134 147 147 140 144 140 127 122 121 124 137 140 132 128 130 126 119 109 105 116 122 125 126 126 129 132 123 111 97 82 83 89 86 80 83 93 100 103 107 116 120 114 107 106 106 104 103 101 100 99 99 97 97 98 98 99 100 100 99 99 99 99 97 94 92 92 94 96 98 102 102 100 94 89 86
221 215 190 173 153 183 218 183 149 151 156 142 141 151 149 144 147 144 136 137 141 138 134 133 132 130 126 123 121 116 112 114 117 122 126 127 128 129 125 118 111 98 87 86 86 84 86 90 94 97 102 111 123 124 118 113 110 106 104 103 103 103 103 102 101 100 99 100 101 102 102 104 104 104 102 99 95 93 96 99 103 104 103 99 94 89 86
210 186 170 165 149 129 131 124 126 143 155 148 146 151 149 146 146 143 135 133 142 142 135 128 133 131 126 124 125 125 124 124 126 127 125 124 126 125 121 119 118 113 102 94 92 92 91 91 93 96 101 110 122 127 124 119 113 108 105 104 104 104 105 107 108 107 105 105 105 104 104 105 107 108 108 107 104 101 101 103 106 108 105 101 95 90 88
169 130 120 101 85 104 113 104 114 160 169 152 141 144 149 148 146 143 139 141 148 146 138 134 139 139 137 139 141 138 135 136 135 130 122 118 118 118 116 116 117 115 110 103 98 95 92 91 94 98 102 110 122 129 129 121 113 109 107 105 104 103 102 103 106 107 106 106 108 109 108 106 106 107 109 110 112 111 110 109 110 111 110 106 100 95 92
128 127 116 91 83 162 183 169 164 176 171 153 141 140 144 143 138 131 130 139 147 148 144 143 143 141 142 146 145 140 138 137 133 126 122 119 117 117 117 116 113 111 109 103 97 96 95 92 93 96 100 108 121 130 134 129 118 112 108 104 101 100 99 97 94 93 90 87 88 98 109 116 117 115 113 113 114 114 116 117 117 118 119 117 111 104 99
164 157 146 144 171 190 197 180 154 153 152 149 144 138 134 132 129 123 123 134 142 144 145 147 146 144 147 149 143 137 138 136 129 123 121 122 122 120 119 115 109 105 105 102 99 99 100 97 96 95 96 104 116 125 132 133 124 115 110 103 97 94 94 94 93 90 86 87 91 96 101 109 123 141 139 127 117 115 118 122 123 125 127 128 125 117 108
196 180 89 155 162 150 134 125 134 139 141 141 140 137 135 133 133 135 139 143 144 144 148 152 152 150 151 151 147 142 139 128 118 114 111 116 122 123 119 111 104 97 94 98 102 103 102 100 99 95 94 103 115 120 126 128 123 117 113 108 102 96 92 94 97 94 90 94 103 108 109 109 114 134 158 164 149 133 125 124 126 129 133 136 137 133 122
216 40 44 90 123 123 127 139 146 146 145 142 140 144 147 142 140 147 153 151 151 152 153 153 151 149 150 154 156 152 144 136 131 132 132 128 127 125 122 117 112 104 95 98 104 104 100 97 95 92 91 100 112 118 122 122 119 114 110 106 105 107 103 100 102 101 99 101 105 107 109 109 109 116 135 162 172 163 148 137 132 133 137 143 147 145 135
113 66 99 133 135 134 140 148 149 151 152 145 144 151 154 147 146 153 158 156 156 158 156 152 150 152 156 161 160 153 145 143 145 147 147 143 137 133 133 132 130 129 130 122 111 106 104 100 95 92 90 94 104 112 118 122 122 118 111 103 101 108 115 116 115 112 110 108 105 103 102 101 98 96 99 109 132 153 162 161 152 146 149 151 152 151 144
105 82 97 123 130 133 141 148 153 158 158 152 152 160 164 160 157 158 163 164 161 158 158 157 156 159 161 160 156 150 146 146 150 150 147 145 144 145 149 150 146 145 153 157 145 134 129 120 110 102 95 94 103 109 113 121 127 126 118 107 104 109 112 111 110 109 108 107 105 103 100 97 93 92 94 97 103 115 133 155 163 165 170 168 158 153 152
123 106 117 136 132 136 157 171 170 168 169 166 162 163 166 164 160 160 163 163 159 158 162 164 162 161 160 155 151 147 144 144 147 148 147 150 153 153 155 154 149 146 150 152 148 142 136 125 113 104 91 79 118 142 133 124 125 128 126 118 115 117 114 107 104 104 104 102 102 101 100 99 96 95 99 103 106 111 118 123 130 154 179 185 177 164 159
166 166 174 176 169 168 177 182 178 175 173 163 152 152 159 161 161 162 161 159 160 167 171 168 161 159 157 154 150 148 145 143 145 148 150 152 154 153 149 145 141 139 140 140 137 132 124 113 104 96 74 53 70 181 183 157 135 135 135 129 126 126 121 113 108 106 103 103 104 104 103 104 103 103 106 109 111 112 115 113 108 113 138 159 164 164 160
194 182 178 182 184 180 175 174 173 172 169 161 156 159 164 164 162 162 163 166 171 174 172 166 160 158 156 153 151 151 151 151 151 153 153 153 154 153 148 143 139 137 136 135 132 127 118 110 105 92 60 51 71 123 156 158 149 144 141 137 135 132 124 115 109 106 107 109 109 107 107 107 108 109 110 109 106 104 103 103 102 101 104 110 120 131 137
203 185 168 180 191 181 168 167 171 170 168 167 164 161 163 166 166 167 170 173 174 173 168 162 159 158 158 157 156 157 157 155 153 153 154 155 155 154 149 145 143 140 136 134 136 136 131 127 123 100 65 69 90 99 104 120 134 133 134 138 138 132 124 117 112 110 112 111 108 107 108 109 108 108 108 107 105 101 97 95 95 95 97 99 105 113 116
202 192 178 176 179 175 170 173 174 171 168 168 166 163 166 169 171 171 172 172 172 170 167 163 162 163 165 165 162 160 158 156 155 155 155 156 156 154 151 148 148 146 143 144 148 151 147 143 147 149 85 80 98 95 84 97 119 124 130 139 138 129 122 121 119 116 115 113 109 109 109 106 103 102 101 100 98 96 94 92 92 92 93 93 95 99 99
200 197 190 180 177 176 177 177 175 171 167 166 168 171 172 173 172 171 170 170 173 173 170 167 168 168 166 162 159 158 158 157 156 156 157 157 158 156 153 153 155 157 158 157 157 157 159 163 174 192 211 94 114 106 90 97 119 130 134 139 138 131 126 126 124 120 118 115 112 110 108 104 102 99 96 95 94 92 90 89 87 85 85 84 81 82 83
197 195 186 177 176 175 172 169 170 171 171 169 170 174 175 174 172 170 170 172 174 173 171 168 167 166 162 159 159 160 161 160 159 159 160 162 164 165 164 167 172 173 170 167 164 165 172 182 193 199 184 146 142 131 114 117 133 141 139 136 133 130 130 130 126 122 120 117 114 111 108 106 103 100 96 95 94 90 88 88 85 81 79 77 73 72 72
187 180 172 171 174 171 164 161 169 178 179 176 174 175 176 175 172 170 170 173 175 174 172 169 166 166 166 165 164 164 164 163 163 163 164 165 167 167 169 177 182 180 175 172 171 173 181 192 196 189 174 157 145 140 135 134 138 141 140 135 131 129 131 131 129 125 122 118 115 113 110 106 103 100 96 93 90 87 86 86 85 85 86 83 80 79 77
191 180 172 169 171 174 172 170 173 179 182 181 178 178 178 176 174 172 173 174 175 175 175 172 172 173 175 172 169 168 167 166 167 168 168 168 167 166 171 183 187 183 178 177 176 178 187 195 196 190 178 163 153 150 147 144 143 143 140 137 134 132 132 132 130 127 124 120 116 114 112 109 106 104 101 97 94 92 90 89 88 90 91 89 85 83 82
151 181 178 172 172 176 176 173 171 174 181 184 182 179 178 179 179 178 177 176 175 176 177 179 179 178 176 173 169 167 167 168 170 172 174 178 178 177 181 188 188 182 178 179 181 184 190 193 192 185 162 149 148 151 152 150 150 147 142 139 137 135 134 133 131 128 125 123 119 117 116 115 112 108 103 98 93 90 88 87 86 87 88 88 87 85 83
144 168 180 181 177 176 176 176 173 173 178 183 182 180 180 181 181 179 176 175 176 177 178 179 178 175 172 170 167 165 167 170 172 172 177 185 189 191 191 187 181 178 178 180 183 188 189 186 182 172 153 144 146 151 151 151 150 147 142 138 137 135 133 133 132 130 129 126 124 123 121 117 111 105 99 94 91 90 87 84 85 87 87 88 89 89 88
159 169 183 192 188 182 179 176 171 171 177 184 185 183 182 180 180 178 176 175 177 178 177 175 173 171 171 170 168 166 168 172 173 172 172 176 185 194 196 184 175 175 178 181 185 187 185 181 179 170 153 148 151 153 151 149 147 144 141 138 136 135 135 136 138 138 136 132 128 125 121 115 109 104 100 98 98 97 94 90 89 89 90 91 93 95 95
214 190 188 191 193 189 182 178 177 179 178 173 172 175 178 178 178 178 178 177 177 178 176 175 174 174 174 174 175 176 178 180 180 177 172 169 177 190 189 181 177 178 180 183 187 186 179 175 173 164 155 155 157 155 152 149 147 145 143 140 138 138 141 145 148 146 140 135 133 131 126 121 118 115 113 112 111 108 104 100 95 91 89 90 92 92 90
251 219 185 180 192 199 197 193 185 170 152 137 131 147 166 169 172 181 183 180 179 179 179 179 180 180 179 177 176 174 176 179 183 185 185 185 190 190 183 179 181 183 182 183 186 184 177 173 169 162 159 163 163 158 155 153 151 149 148 144 140 140 143 148 151 149 143 140 142 142 137 133 132 129 126 126 124 122 120 117 109 99 94 91 90 87 84
243 226 188 183 194 202 201 190 165 142 133 130 139 164 174 174 179 187 190 185 180 180 181 182 182 183 182 180 177 174 171 170 175 186 192 193 189 182 179 180 182 184 183 184 184 180 175 175 176 171 165 166 164 160 158 157 157 155 152 146 141 139 140 143 149 153 152 151 152 152 150 149 148 143 140 140 140 138 138 135 127 117 109 102 97 93 89
226 221 198 188 189 188 182 170 155 146 151 165 176 181 183 181 180 182 183 181 178 178 179 180 182 182 183 184 186 185 182 177 176 184 191 188 177 171 175 180 183 184 185 184 182 179 178 182 185 182 173 169 166 163 161 161 160 159 157 154 150 146 145 146 150 157 162 165 169 171 171 171 169 162 156 153 152 154 158 159 153 147 139 128 117 110 104
219 211 186 174 172 171 169 166 159 162 174 178 177 175 173 165 159 165 172 174 172 172 175 177 179 180 182 185 187 188 187 187 187 189 187 182 176 173 174 178 183 187 187 185 183 182 183 186 189 185 177 174 174 172 169 166 163 162 163 165 165 163 161 161 162 163 165 172 182 185 184 184 185 181 174 166 163 166 174 180 180 176 170 161 151 142 133
215 184 166 165 168 170 173 176 175 175 176 175 169 161 157 154 155 167 176 175 171 170 171 174 176 178 180 183 185 185 186 189 193 190 183 177 176 175 175 178 184 188 186 183 181 180 183 189 193 187 178 176 177 177 174 171 167 167 170 175 176 172 171 174 176 173 169 172 178 179 180 183 188 187 183 177 173 173 180 188 195 196 193 188 180 170 158
215 193 180 177 177 178 182 186 186 181 176 171 163 159 161 165 169 173 175 175 173 168 162 163 169 175 178 180 181 183 184 187 190 185 178 175 175 176 177 180 185 187 184 181 179 180 184 193 195 186 178 178 179 179 177 174 172 173 179 183 182 179 178 180 180 176 173 173 176 179 180 181 184 187 187 186 184 184 186 190 195 199 202 201 196 188 180
217 202 178 165 164 170 178 186 187 181 174 168 162 162 165 169 168 167 171 176 176 170 163 162 167 175 179 179 179 181 184 185 182 176 171 171 173 176 179 183 186 186 184 182 181 184 187 189 183 177 178 181 184 185 185 185 186 188 191 191 190 190 191 188 182 179 177 179 185 191 192 185 181 184 188 191 194 198 200 199 195 196 200 203 201 198 198
Height
778 779 778 779 781 781 780 780 779 780 785 785 782 787 792 792 797 799 793 795 798 788 782 786 787 787 788 790 791 791 791 791 789 789 789 788 786 782 779 777 774 773 772 769 767 766 764 763 763 762 762 762 761 761 763 764 767 770 772 770 770 772 774 775 777 778 779 780 781 783 785 786 789 790 791 793 794 795 797 798 799 800 801 801 802 803 803
778 779 780 779 778 778 779 780 780 780 783 784 781 787 795 792 790 790 790 793 792 784 784 787 786 787 789 789 790 791 791 791 790 789 789 788 787 784 780 778 775 773 772 770 768 766 764 764 763 763 762 760 759 759 760 763 764 765 767 768 768 770 771 773 775 777 779 781 781 781 782 783 785 787 789 791 792 794 795 796 797 798 799 799 799 800 801
782 779 779 778 777 778 780 783 784 780 783 786 785 789 794 791 791 795 798 798 793 786 787 789 787 788 789 789 792 792 792 792 790 790 789 788 786 784 781 778 775 773 771 769 768 766 765 764 763 762 762 760 758 757 758 761 762 762 764 765 766 768 770 772 775 776 778 780 781 781 780 781 782 784 787 789 791 793 794 795 796 797 797 797 797 798 798
788 782 781 781 776 779 784 787 786 783 783 787 787 787 788 786 791 801 806 802 792 784 786 790 789 789 790 792 793 793 792 792 790 790 789 787 786 784 781 779 776 774 772 769 767 766 765 764 763 761 760 759 758 757 757 759 759 760 762 762 764 766 768 772 775 778 779 779 780 781 780 779 781 783 786 788 789 791 792 793 795 796 796 797 797 797 797
789 783 784 783 779 790 797 789 783 784 784 785 786 785 784 784 789 797 799 792 784 782 788 790 791 792 793 793 793 792 792 791 791 790 788 786 785 783 781 779 777 775 773 770 768 766 764 763 761 759 757 755 755 756 757 759 760 761 761 762 764 765 766 768 771 776 780 780 779 780 780 780 780 782 785 787 788 790 792 793 794 794 795 796 796 796 796
789 786 784 785 793 805 803 785 777 780 780 780 783 785 784 784 786 788 786 783 782 784 788 788 790 793 792 791 791 790 790 791 791 790 787 785 784 782 780 779 777 776 773 771 769 766 764 761 759 756 753 751 751 754 756 759 760 761 762 763 764 764 764 764 765 769 776 781 781 780 780 780 781 782 785 786 786 787 790 791 792 793 794 794 795 795 795
790 789 788 800 810 805 791 781 777 778 778 777 780 786 787 787 788 785 782 782 784 786 788 788 790 792 790 789 790 789 789 790 790 789 787 785 784 782 781 779 778 776 773 771 770 768 765 763 760 756 753 750 751 752 755 757 759 760 762 764 764 765 764 764 764 765 770 777 782 782 780 779 780 781 785 787 786 787 788 790 791 792 793 793 793 793 794
792 792 797 808 808 795 787 786 781 778 782 782 782 787 788 785 787 785 780 782 788 791 792 791 791 792 790 789 789 788 788 788 788 788 787 784 784 782 781 780 778 776 774 772 771 769 767 764 761 758 756 754 753 753 755 757 759 760 762 764 766 767 768 767 767 767 768 774 780 781 778 777 778 781 786 789 789 788 788 789 790 791 792 793 793 793 793
793 796 800 799 796 797 796 790 781 777 780 780 778 784 785 781 783 784 780 784 791 793 793 793 792 791 792 792 791 787 786 787 787 787 786 784 783 782 781 780 779 776 775 773 772 771 768 765 763 760 758 757 756 756 757 759 761 762 763 764 766 768 769 770 769 768 769 772 777 779 778 778 781 784 788 790 790 789 789 790 790 791 792 792 792 792 792
793 796 802 801 802 805 796 783 776 772 772 773 773 779 783 779 779 781 780 782 789 792 793 794 793 793 796 797 792 787 786 786 785 785 785 784 783 782 781 781 779 777 776 775 773 772 769 767 764 762 760 760 759 759 761 762 763 764 764 765 766 767 769 769 769 768 769 772 775 777 779 781 784 787 789 789 789 789 789 790 790 791 791 790 791 791 790
792 791 798 804 803 796 784 776 773 771 772 771 772 784 789 777 773 780 780 782 788 791 793 793 793 796 799 797 790 786 786 786 785 786 786 784 783 783 782 781 780 779 778 777 775 774 771 769 767 764 762 762 762 762 763 764 765 766 766 766 766 767 768 769 768 768 769 771 773 775 778 781 784 785 787 787 787 788 788 788 788 789 788 788 788 788 788
788 787 794 800 794 784 777 773 771 772 770 768 782 802 796 774 771 779 779 780 786 789 792 794 795 796 796 793 788 786 785 785 786 786 786 785 784 783 783 783 782 780 780 779 778 776 774 772 770 767 765 765 765 766 766 766 766 767 769 768 768 768 768 768 768 768 769 771 773 774 777 779 781 782 784 784 785 785 786 786 786 787 787 787 787 787 788
786 787 793 796 789 778 773 769 767 768 769 777 795 803 786 769 773 778 776 778 784 786 790 793 792 790 789 788 787 785 785 786 786 786 785 785 785 784 784 784 784 783 782 782 780 779 777 775 773 771 769 767 768 769 769 769 769 770 771 771 771 772 771 770 770 770 771 772 774 775 777 778 779 780 781 782 783 783 784 784 785 785 786 787 787 788 788
788 787 789 797 792 775 765 766 765 766 776 788 790 782 771 770 774 775 776 778 781 784 788 789 788 787 786 786 786 786 785 786 786 786 786 786 786 786 785 785 785 785 785 784 783 781 780 778 776 775 772 771 771 772 772 772 774 774 773 773 774 774 773 773 774 774 774 775 775 777 778 779 779 780 781 782 782 783 783 784 784 785 786 787 787 788 789
790 791 794 802 794 773 761 765 768 769 774 777 772 768 772 773 771 773 777 777 778 782 785 786 787 787 786 786 786 785 786 786 786 787 787 787 788 788 787 787 787 787 787 786 785 784 783 781 780 778 776 775 775 776 776 777 778 777 776 776 776 776 776 777 778 779 779 779 779 780 781 781 782 782 783 783 783 784 784 784 785 786 787 787 788 789 790
783 790 790 785 774 762 759 763 765 764 763 762 761 765 771 772 771 773 774 775 777 780 781 784 787 787 786 786 786 786 787 787 787 788 788 789 790 790 789 788 788 789 790 789 788 788 786 785 783 782 780 780 780 780 780 781 781 780 780 780 780 780 779 781 782 783 784 785 783 783 784 785 785 785 784 784 785 785 786 786 786 787 788 789 790 791 791
772 775 772 764 758 758 759 759 759 758 758 759 760 762 765 769 771 771 771 774 777 778 779 783 786 785 786 786 786 786 787 787 787 788 789 790 791 791 790 789 790 792 793 792 791 791 789 788 787 786 784 783 783 783 783 784 783 783 784 783 783 782 783 784 785 786 787 788 787 786 787 787 787 787 787 787 787 788 788 789 789 790 791 792 792 793 794
766 765 762 760 760 760 759 759 759 758 758 759 759 760 763 766 767 768 769 772 775 777 779 782 784 786 786 786 786 786 786 787 787 788 790 791 791 792 792 791 792 794 794 794 793 792 792 791 790 789 788 787 786 786 786 786 786 786 786 786 785 785 786 787 788 788 789 789 789 789 789 790 790 790 791 790 790 791 791 792 793 794 795 795 796 796 797
767 767 765 762 762 761 760 761 760 758 758 760 760 761 763 764 766 768 769 770 774 777 778 780 783 786 785 785 787 787 787 787 788 789 791 792 792 793 794 793 794 795 795 795 795 794 794 794 793 792 792 790 790 790 789 789 789 788 788 788 788 788 789 789 790 791 791 791 791 791 791 792 792 793 794 794 794 795 795 796 796 797 797 798 799 799 799
768 770 768 764 763 763 761 761 760 759 759 761 761 762 763 765 767 769 769 771 774 776 778 780 783 785 785 786 787 788 788 788 788 789 792 793 793 794 795 795 795 795 795 796 797 796 796 796 796 796 795 794 794 794 793 792 792 791 791 791 791 791 792 792 792 793 794 794 794 794 795 795 795 796 797 798 798 798 799 799 799 799 800 800 801 801 801
772 772 769 766 766 765 762 761 760 760 760 761 763 765 765 766 769 770 772 773 774 775 779 780 781 784 786 785 786 788 788 788 789 790 792 795 796 796 796 797 797 796 797 797 798 798 798 798 798 798 798 798 798 797 797 797 795 794 795 795 795 795 795 795 796 797 797 798 798 798 798 798 799 800 801 801 802 802 802 802 802 802 802 802 803 803 803
773 768 763 762 764 765 762 759 758 760 761 762 764 766 767 768 770 771 773 776 776 777 779 779 780 784 786 785 786 787 788 789 792 792 793 796 797 797 798 799 799 799 799 799 799 800 800 799 799 800 800 800 800 800 800 800 799 799 799 798 799 799 799 800 800 800 801 801 801 801 802 802 802 803 804 805 805 805 805 805 804 804 804 804 805 806 805
762 757 755 757 758 758 757 756 757 760 761 761 764 766 767 769 770 771 773 776 779 780 781 780 780 782 785 786 787 787 788 790 791 792 794 797 798 799 799 799 800 802 802 800 801 802 801 801 801 801 801 802 802 803 803 803 803 802 802 801 802 803 803 803 804 804 804 804 804 805 805 805 806 806 807 808 808 808 807 807 807 807 807 808 808 809 809
752 750 752 754 754 753 754 755 757 760 761 762 764 766 767 768 770 771 773 775 778 780 782 783 782 783 785 787 787 788 790 791 792 794 796 797 799 800 800 799 800 803 804 803 803 803 803 803 803 803 803 804 805 805 806 806 806 806 805 805 805 805 806 807 807 807 808 808 808 808 808 809 809 809 810 810 810 810 810 810 810 810 810 811 812 812 812
746 746 748 751 752 753 754 755 757 760 760 761 763 766 767 768 770 772 774 776 778 779 781 783 784 784 785 787 789 790 791 793 795 797 797 798 800 801 800 800 801 803 805 806 805 805 805 805 805 805 806 806 807 808 808 809 809 809 808 808 808 808 809 809 809 810 811 811 811 812 812 812 813 812 812 812 812 812 812 812 813 813 813 814 815 815 816
743 744 748 752 753 754 756 758 760 761 761 761 763 765 767 768 770 772 774 776 778 780 781 783 785 786 786 788 790 792 792 794 796 797 797 798 800 800 802 803 803 804 806 807 807 808 808 807 807 808 808 809 810 810 811 811 811 811 811 811 811 811 811 812 812 813 813 813 814 814 814 815 815 815 815 814 814 814 814 814 815 816 816 817 818 818 818
743 744 747 754 759 759 756 755 757 758 760 761 763 765 767 769 771 774 775 777 779 781 782 783 785 786 788 789 791 792 794 795 796 797 798 800 801 801 803 804 804 806 808 808 809 810 810 810 810 810 810 811 812 812 812 813 812 813 813 813 813 813 813 814 814 814 815 815 815 815 816 816 816 816 817 817 816 816 816 816 817 818 819 819 820 821 821
744 742 742 748 753 754 752 753 754 756 759 761 763 765 768 770 772 775 777 779 781 782 783 784 785 786 789 790 791 793 794 795 797 798 800 801 802 803 804 805 806 809 810 810 811 812 812 812 813 813 813 814 814 814 814 814 814 814 815 815 815 815 815 815 816 816 816 816 816 816 816 816 817 817 818 818 818 819 819 819 819 820 821 822 823 823 824
745 743 742 742 743 745 749 753 756 757 760 762 763 765 768 771 774 776 778 779 781 783 784 785 786 787 788 790 791 792 794 797 799 801 802 804 803 803 804 806 808 811 813 813 814 814 815 815 815 815 816 816 816 816 816 816 816 816 816 816 816 816 816 816 817 817 817 817 817 817 817 817 817 817 818 819 820 820 820 821 821 822 822 823 824 825 826
746 745 745 744 744 746 750 754 756 758 760 762 764 766 768 770 773 776 778 779 781 782 784 785 787 788 789 790 791 792 794 796 799 801 805 807 805 804 805 806 808 812 817 817 816 817 818 817 817 818 818 818 818 818 818 817 818 818 818 818 818 817 817 818 818 818 818 818 818 818 818 818 818 818 818 819 820 820 821 822 822 823 823 824 825 826 827
746 747 747 747 747 748 751 754 756 758 760 761 764 767 769 770 773 776 778 779 780 782 783 785 786 788 789 790 792 793 794 796 799 801 804 806 806 804 806 808 808 811 816 818 817 818 819 819 819 820 820 820 820 820 819 819 819 820 820 819 819 818 818 819 819 819 819 819 819 819 819 819 819 819 819 819 820 821 822 822 823 824 824 825 826 827 827
747 749 751 750 750 751 754 756 757 759 760 761 763 765 767 769 771 774 777 778 779 781 783 784 786 787 789 790 792 793 795 797 799 801 803 805 805 805 807 809 809 810 813 817 818 818 819 820 821 822 822 821 821 821 821 821 821 821 821 821 820 820 820 820 820 820 820 820 821 821 821 821 821 821 821 821 821 822 822 823 824 824 825 825 826 827 828
747 750 753 753 753 755 757 757 757 757 759 760 761 763 765 767 769 772 774 777 779 781 782 784 785 786 788 790 791 793 795 797 799 801 802 804 805 806 808 809 810 811 814 816 817 819 820 820 821 821 821 821 822 822 822 822 822 822 821 821 821 821 821 821 822 822 821 822 822 822 822 822 822 822 823 823 823 823 823 824 824 824 825 826 827 828 829
739 742 744 745 746 749 752 754 755 756 758 759 761 763 765 767 769 771 773 776 778 780 782 783 785 786 788 790 791 793 795 797 799 801 802 803 805 807 808 809 811 813 815 817 818 819 820 820 820 821 821 821 822 822 822 822 822 822 822 821 822 822 822 822 823 823 823 823 823 823 823 823 823 824 824 824 824 825 824 824 825 825 825 826 827 828 829
734 735 737 738 739 740 743 747 750 753 756 758 761 762 764 767 769 770 773 775 777 779 780 782 785 787 788 790 791 793 795 796 798 800 802 803 805 807 808 810 812 814 816 817 818 819 819 820 821 821 821 822 822 822 822 822 822 822 822 822 822 822 823 823 823 823 824 824 824 824 824 824 825 825 825 825 826 826 826 826 826 826 826 827 828 829 830
734 735 737 739 740 741 742 744 747 750 752 755 758 761 763 766 767 769 771 773 776 778 780 782 785 787 788 789 791 793 794 796 798 800 802 803 805 807 808 810 812 814 816 817 819 819 820 821 821 821 822 822 822 822 823 823 822 822 822 822 822 822 823 823 824 824 825 825 825 825 825 826 826 826 826 827 827 827 827 827 827 827 828 828 829 829 830
734 734 736 737 739 741 743 744 746 748 750 753 756 759 761 764 766 768 770 773 775 778 780 781 784 786 788 789 790 792 794 796 798 800 801 803 805 807 809 811 812 814 815 817 818 819 820 821 822 822 822 822 823 823 823 822 822 823 823 822 823 823 823 824 824 825 825 825 826 826 827 827 827 828 828 828 828 828 829 829 829 829 829 830 830 830 830
731 732 734 736 737 739 741 743 745 747 750 753 755 758 760 762 765 767 770 772 774 777 779 781 783 785 787 789 791 793 795 796 798 800 802 804 806 807 809 811 812 813 815 817 818 819 821 821 822 823 823 823 823 823 823 823 823 823 823 823 823 824 824 825 826 826 826 827 827 828 828 829 829 829 830 830 830 830 831 831 830 831 831 831 831 831 831
731 732 733 735 736 737 740 742 745 747 748 751 754 757 759 761 764 766 769 771 774 776 778 781 783 785 787 790 791 793 795 796 798 800 802 804 806 808 809 811 812 814 815 817 818 819 821 822 822 822 823 823 823 823 823 823 823 823 823 824 824 825 826 826 827 827 828 829 829 829 830 831 831 831 832 832 832 832 833 832 833 833 832 832 832 832 832
729 730 732 734 736 737 739 742 744 745 746 749 751 754 757 760 763 765 768 771 773 775 777 779 782 785 787 789 791 792 794 796 798 800 802 804 806 808 810 811 813 814 815 817 818 819 820 821 822 822 823 823 823 823 823 823 823 824 825 825 826 827 828 828 828 829 830 830 831 831 832 832 833 833 833 834 834 834 834 834 834 834 834 834 834 833 833
728 729 730 732 734 736 737 740 742 744 746 748 750 752 755 758 761 764 766 769 772 774 776 778 780 783 785 787 790 792 794 796 797 799 801 803 805 807 809 811 812 814 815 816 817 819 820 821 821 822 822 822 823 823 823 824 824 825 826 826 827 828 829 829 830 831 831 832 832 833 833 834 834 835 835 835 835 835 835 835 835 835 835 835 835 834 834
729 730 731 732 733 735 737 739 741 743 745 747 749 751 753 756 758 761 764 767 770 773 775 777 779 782 785 788 790 792 794 796 798 799 801 802 804 806 808 809 811 813 814 816 817 818 819 820 821 822 822 822 823 823 824 824 825 825 826 827 828 829 830 831 831 832 833 833 834 834 835 835 836 836 836 836 836 836 836 836 836 836 836 836 836 836 836
729 730 731 732 733 734 735 737 739 742 744 746 747 750 752 754 757 760 763 766 769 771 774 777 780 782 785 788 790 792 794 796 798 799 801 803 804 805 807 808 810 812 814 815 816 818 819 820 821 822 822 822 823 823 824 825 826 826 827 828 829 830 831 832 832 833 834 835 835 836 836 836 836 837 837 837 837 837 837 837 837 838 838 837 837 837 837
728 729 730 732 733 733 735 737 738 740 742 744 746 749 751 753 756 759 762 764 767 770 773 776 779 781 784 786 789 791 793 795 797 799 801 803 805 806 807 808 809 811 813 814 816 817 818 820 821 822 822 823 823 824 824 825 826 827 828 829 830 831 832 833 834 834 835 835 836 837 837 837 837 838 838 838 838 839 839 839 839 839 839 839 839 839 839
729 729 730 731 733 734 735 736 737 739 741 743 747 750 752 754 756 758 760 762 766 768 771 774 776 779 782 784 787 789 791 793 795 797 799 802 804 805 806 808 809 810 812 814 815 817 818 820 821 821 822 823 823 824 825 826 827 828 829 830 831 832 833 834 834 835 836 836 837 837 838 838 839 839 839 839 840 840 840 840 841 841 841 841 841 841 841
730 731 730 731 732 734 735 736 737 739 742 745 749 752 753 754 758 760 761 762 764 766 769 772 774 777 780 783 786 789 792 794 796 797 798 800 801 803 805 807 809 810 812 814 815 817 818 820 821 821 822 823 824 825 826 827 828 829 830 831 832 833 834 834 835 836 836 837 838 838 839 839 839 839 840 840 841 841 841 842 842 842 842 842 842 842 842
729 730 730 730 731 733 735 737 738 741 743 745 747 749 749 751 755 758 761 762 763 766 768 771 773 776 778 781 784 787 790 794 797 798 799 800 801 803 804 806 808 810 812 813 815 816 818 819 820 821 822 823 824 825 826 827 828 829 830 832 833 833 834 835 835 836 837 837 838 838 839 839 840 840 841 841 841 842 842 842 842 843 843 843 843 843 844
727 728 728 730 731 733 735 737 738 740 742 742 743 745 749 751 753 756 759 761 763 766 768 770 773 776 778 780 783 785 787 790 794 797 798 800 801 802 804 806 808 810 811 813 815 816 818 819 820 821 822 823 824 825 826 827 828 829 830 832 833 834 834 835 836 836 837 837 838 838 839 839 840 840 841 841 842 842 842 842 843 843 843 843 844 844 844
725 726 728 729 731 732 734 736 737 739 740 740 742 746 751 754 756 759 761 762 763 765 768 770 772 775 777 780 782 784 787 789 791 793 796 798 800 801 803 805 807 809 811 813 814 816 817 818 820 821 822 823 824 825 826 827 828 829 830 832 833 834 834 835 835 836 836 837 837 838 839 839 839 840 841 841 842 842 842 842 843 843 843 844 844 844 845
725 726 727 729 730 731 733 734 735 737 738 740 743 746 750 752 755 759 762 764 765 766 768 770 772 774 777 779 782 784 787 789 791 792 794 797 799 801 802 804 807 808 810 812 813 815 816 818 819 820 821 822 824 825 826 827 828 829 830 831 832 833 834 835 835 836 836 837 837 837 838 838 839 839 840 841 841 842 842 842 842 843 843 844 844 844 845
724 725 726 728 729 731 732 733 734 736 737 739 742 745 747 749 751 754 758 762 765 767 768 770 772 775 776 779 782 784 786 789 791 793 794 796 798 800 802 804 806 808 810 811 813 814 816 817 818 819 821 822 823 824 825 826 828 829 830 831 832 833 833 834 834 835 836 836 836 837 837 838 838 839 840 840 841 841 841 842 842 842 843 843 843 844 844
725 726 728 729 731 732 733 734 735 736 738 740 742 744 746 748 751 753 756 759 762 764 766 768 771 774 776 778 781 783 786 788 790 792 793 795 797 799 801 803 805 807 809 811 812 814 815 816 817 818 820 821 822 824 825 826 827 828 830 831 832 832 833 833 834 834 835 836 836 837 837 837 838 838 839 840 840 840 841 841 842 842 842 842 843 843 843